Year,Month,Day,Hour,Minute,Value (Times are PST for temperature in C)
2010,08,11,00,00,14.60
2010,08,11,00,01,14.60
2010,08,11,00,02,14.60
2010,08,11,00,03,14.60
2010,08,11,00,04,14.50
2010,08,11,00,05,14.50
2010,08,11,00,06,14.40
2010,08,11,00,07,14.40
2010,08,11,00,08,14.40
2010,08,11,00,09,14.40
2010,08,11,00,10,14.30
2010,08,11,00,11,14.30
2010,08,11,00,12,14.30
2010,08,11,00,13,14.30
2010,08,11,00,14,14.30
2010,08,11,00,15,14.30
2010,08,11,00,16,14.30
2010,08,11,00,17,14.20
2010,08,11,00,18,14.20
2010,08,11,00,19,14.20
2010,08,11,00,20,14.20
2010,08,11,00,21,14.20
2010,08,11,00,22,14.20
2010,08,11,00,23,14.20
2010,08,11,00,24,14.20
2010,08,11,00,25,14.20
2010,08,11,00,26,14.10
2010,08,11,00,27,14.10
2010,08,11,00,28,14.10
2010,08,11,00,29,14.10
2010,08,11,00,30,14.10
2010,08,11,00,31,14.10
2010,08,11,00,32,14.10
2010,08,11,00,33,14.10
2010,08,11,00,34,14.10
2010,08,11,00,35,14.00
2010,08,11,00,36,14.00
2010,08,11,00,37,14.00
2010,08,11,00,38,14.00
2010,08,11,00,39,14.00
2010,08,11,00,40,13.90
2010,08,11,00,41,13.90
2010,08,11,00,42,13.90
2010,08,11,00,43,13.90
2010,08,11,00,44,13.90
2010,08,11,00,45,13.90
2010,08,11,00,46,13.90
2010,08,11,00,47,13.90
2010,08,11,00,48,13.90
2010,08,11,00,49,13.90
2010,08,11,00,50,13.80
2010,08,11,00,51,13.80
2010,08,11,00,52,13.80
2010,08,11,00,53,13.80
2010,08,11,00,54,13.80
2010,08,11,00,55,13.80
2010,08,11,00,56,13.80
2010,08,11,00,57,13.80
2010,08,11,00,58,13.80
2010,08,11,00,59,13.80
2010,08,11,01,00,13.80
2010,08,11,01,01,13.80
2010,08,11,01,02,13.80
2010,08,11,01,06,13.80
2010,08,11,01,07,13.80
2010,08,11,01,08,13.80
2010,08,11,01,09,13.80
2010,08,11,01,10,13.80
2010,08,11,01,11,13.70
2010,08,11,01,12,13.70
2010,08,11,01,13,13.70
2010,08,11,01,14,13.70
2010,08,11,01,15,13.70
2010,08,11,01,16,13.70
2010,08,11,01,17,13.70
2010,08,11,01,18,13.60
2010,08,11,01,19,13.60
2010,08,11,01,20,13.60
2010,08,11,01,21,13.60
2010,08,11,01,22,13.60
2010,08,11,01,23,13.60
2010,08,11,01,24,13.60
2010,08,11,01,25,13.60
2010,08,11,01,26,13.60
2010,08,11,01,27,13.60
2010,08,11,01,28,13.60
2010,08,11,01,29,13.60
2010,08,11,01,30,13.60
2010,08,11,01,31,13.60
2010,08,11,01,32,13.60
2010,08,11,01,33,13.60
2010,08,11,01,34,13.60
2010,08,11,01,35,13.50
2010,08,11,01,36,13.50
2010,08,11,01,37,13.50
2010,08,11,01,38,13.50
2010,08,11,01,39,13.50
2010,08,11,01,40,13.50
2010,08,11,01,41,13.50
2010,08,11,01,42,13.50
2010,08,11,01,43,13.50
2010,08,11,01,44,13.50
2010,08,11,01,45,13.50
2010,08,11,01,46,13.40
2010,08,11,01,47,13.40
2010,08,11,01,48,13.40
2010,08,11,01,49,13.40
2010,08,11,01,50,13.40
2010,08,11,01,51,13.40
2010,08,11,01,52,13.40
2010,08,11,01,53,13.40
2010,08,11,01,54,13.40
2010,08,11,01,55,13.40
2010,08,11,01,56,13.40
2010,08,11,01,57,13.40
2010,08,11,01,58,13.40
2010,08,11,01,59,13.40
2010,08,11,02,00,13.40
2010,08,11,02,01,13.40
2010,08,11,02,02,13.40
2010,08,11,02,03,13.40
2010,08,11,02,04,13.40
2010,08,11,02,05,13.30
2010,08,11,02,06,13.30
2010,08,11,02,07,13.30
2010,08,11,02,08,13.30
2010,08,11,02,09,13.30
2010,08,11,02,10,13.30
2010,08,11,02,11,13.30
2010,08,11,02,12,13.30
2010,08,11,02,13,13.30
2010,08,11,02,14,13.30
2010,08,11,02,15,13.30
2010,08,11,02,16,13.30
2010,08,11,02,17,13.20
2010,08,11,02,18,13.20
2010,08,11,02,19,13.20
2010,08,11,02,20,13.20
2010,08,11,02,21,13.20
2010,08,11,02,22,13.20
2010,08,11,02,23,13.20
2010,08,11,02,24,13.20
2010,08,11,02,25,13.20
2010,08,11,02,26,13.20
2010,08,11,02,27,13.20
2010,08,11,02,28,13.10
2010,08,11,02,29,13.10
2010,08,11,02,30,13.10
2010,08,11,02,31,13.10
2010,08,11,02,32,13.10
2010,08,11,02,33,13.10
2010,08,11,02,34,13.10
2010,08,11,02,35,13.00
2010,08,11,02,36,13.00
2010,08,11,02,37,13.00
2010,08,11,02,38,13.00
2010,08,11,02,39,13.00
2010,08,11,02,40,12.90
2010,08,11,02,41,12.90
2010,08,11,02,42,12.90
2010,08,11,02,43,12.90
2010,08,11,02,44,12.90
2010,08,11,02,45,12.90
2010,08,11,02,46,12.90
2010,08,11,02,47,12.90
2010,08,11,02,48,12.90
2010,08,11,02,49,12.90
2010,08,11,02,50,12.90
2010,08,11,02,51,12.90
2010,08,11,02,52,12.90
2010,08,11,02,53,12.90
2010,08,11,02,54,12.90
2010,08,11,02,55,12.90
2010,08,11,02,56,12.90
2010,08,11,02,57,12.90
2010,08,11,02,58,12.90
2010,08,11,02,59,12.90
2010,08,11,03,00,12.90
2010,08,11,03,01,12.90
2010,08,11,03,02,12.90
2010,08,11,03,03,12.90
2010,08,11,03,04,12.90
2010,08,11,03,05,12.90
2010,08,11,03,06,12.90
2010,08,11,03,07,12.90
2010,08,11,03,08,12.90
2010,08,11,03,09,12.90
2010,08,11,03,10,12.90
2010,08,11,03,11,12.90
2010,08,11,03,12,12.90
2010,08,11,03,13,12.90
2010,08,11,03,14,12.90
2010,08,11,03,15,12.90
2010,08,11,03,16,12.90
2010,08,11,03,17,12.90
2010,08,11,03,18,12.90
2010,08,11,03,19,12.90
2010,08,11,03,20,12.90
2010,08,11,03,21,12.90
2010,08,11,03,22,12.90
2010,08,11,03,23,12.90
2010,08,11,03,24,12.90
2010,08,11,03,25,12.90
2010,08,11,03,26,12.90
2010,08,11,03,27,12.90
2010,08,11,03,28,12.90
2010,08,11,03,29,12.90
2010,08,11,03,30,12.90
2010,08,11,03,31,12.90
2010,08,11,03,32,12.90
2010,08,11,03,33,12.90
2010,08,11,03,34,12.90
2010,08,11,03,35,12.90
2010,08,11,03,36,12.80
2010,08,11,03,37,12.80
2010,08,11,03,38,12.80
2010,08,11,03,39,12.80
2010,08,11,03,40,12.80
2010,08,11,03,41,12.80
2010,08,11,03,42,12.80
2010,08,11,03,43,12.80
2010,08,11,03,44,12.70
2010,08,11,03,45,12.70
2010,08,11,03,46,12.70
2010,08,11,03,47,12.70
2010,08,11,03,48,12.70
2010,08,11,03,49,12.70
2010,08,11,03,50,12.70
2010,08,11,03,51,12.70
2010,08,11,03,52,12.70
2010,08,11,03,53,12.60
2010,08,11,03,54,12.60
2010,08,11,03,55,12.60
2010,08,11,03,56,12.60
2010,08,11,03,57,12.60
2010,08,11,03,58,12.60
2010,08,11,03,59,12.60
2010,08,11,04,00,12.60
2010,08,11,04,01,12.60
2010,08,11,04,02,12.60
2010,08,11,04,03,12.60
2010,08,11,04,04,12.60
2010,08,11,04,05,12.60
2010,08,11,04,06,12.60
2010,08,11,04,07,12.60
2010,08,11,04,08,12.60
2010,08,11,04,09,12.60
2010,08,11,04,10,12.60
2010,08,11,04,11,12.60
2010,08,11,04,12,12.60
2010,08,11,04,13,12.60
2010,08,11,04,14,12.60
2010,08,11,04,15,12.60
2010,08,11,04,16,12.70
2010,08,11,04,17,12.70
2010,08,11,04,18,12.70
2010,08,11,04,19,12.70
2010,08,11,04,20,12.70
2010,08,11,04,21,12.70
2010,08,11,04,22,12.70
2010,08,11,04,23,12.70
2010,08,11,04,24,12.70
2010,08,11,04,25,12.70
2010,08,11,04,26,12.70
2010,08,11,04,27,12.70
2010,08,11,04,28,12.70
2010,08,11,04,29,12.70
2010,08,11,04,30,12.70
2010,08,11,04,31,12.70
2010,08,11,04,32,12.70
2010,08,11,04,33,12.60
2010,08,11,04,34,12.60
2010,08,11,04,35,12.60
2010,08,11,04,36,12.60
2010,08,11,04,37,12.60
2010,08,11,04,38,12.60
2010,08,11,04,39,12.60
2010,08,11,04,40,12.60
2010,08,11,04,41,12.50
2010,08,11,04,42,12.50
2010,08,11,04,43,12.50
2010,08,11,04,44,12.40
2010,08,11,04,45,12.40
2010,08,11,04,46,12.40
2010,08,11,04,47,12.40
2010,08,11,04,48,12.40
2010,08,11,04,49,12.40
2010,08,11,04,50,12.40
2010,08,11,04,51,12.40
2010,08,11,04,52,12.30
2010,08,11,04,53,12.30
2010,08,11,04,54,12.30
2010,08,11,04,55,12.30
2010,08,11,04,56,12.30
2010,08,11,04,57,12.30
2010,08,11,04,58,12.30
2010,08,11,04,59,12.30
2010,08,11,05,00,12.30
2010,08,11,05,01,12.30
2010,08,11,05,02,12.30
2010,08,11,05,03,12.30
2010,08,11,05,04,12.30
2010,08,11,05,05,12.30
2010,08,11,05,06,12.30
2010,08,11,05,07,12.30
2010,08,11,05,08,12.30
2010,08,11,05,09,12.30
2010,08,11,05,10,12.30
2010,08,11,05,11,12.30
2010,08,11,05,12,12.30
2010,08,11,05,13,12.30
2010,08,11,05,14,12.30
2010,08,11,05,15,12.30
2010,08,11,05,16,12.30
2010,08,11,05,17,12.30
2010,08,11,05,18,12.30
2010,08,11,05,19,12.30
2010,08,11,05,20,12.30
2010,08,11,05,21,12.30
2010,08,11,05,22,12.30
2010,08,11,05,23,12.20
2010,08,11,05,24,12.20
2010,08,11,05,25,12.20
2010,08,11,05,26,12.20
2010,08,11,05,27,12.20
2010,08,11,05,28,12.20
2010,08,11,05,29,12.20
2010,08,11,05,30,12.20
2010,08,11,05,31,12.20
2010,08,11,05,32,12.20
2010,08,11,05,33,12.20
2010,08,11,05,34,12.20
2010,08,11,05,35,12.20
2010,08,11,05,36,12.20
2010,08,11,05,37,12.20
2010,08,11,05,38,12.20
2010,08,11,05,39,12.20
2010,08,11,05,40,12.20
2010,08,11,05,41,12.20
2010,08,11,05,42,12.20
2010,08,11,05,43,12.10
2010,08,11,05,44,12.10
2010,08,11,05,45,12.10
2010,08,11,05,46,12.10
2010,08,11,05,47,12.10
2010,08,11,05,48,12.10
2010,08,11,05,49,12.10
2010,08,11,05,50,12.10
2010,08,11,05,51,12.10
2010,08,11,05,52,12.10
2010,08,11,05,53,12.10
2010,08,11,05,54,12.10
2010,08,11,05,55,12.10
2010,08,11,05,56,12.00
2010,08,11,05,57,12.00
2010,08,11,05,58,12.00
2010,08,11,05,59,12.00
2010,08,11,06,00,12.00
2010,08,11,06,01,11.90
2010,08,11,06,02,11.90
2010,08,11,06,03,11.90
2010,08,11,06,04,11.90
2010,08,11,06,05,11.90
2010,08,11,06,06,11.90
2010,08,11,06,07,11.90
2010,08,11,06,08,11.90
2010,08,11,06,09,11.90
2010,08,11,06,10,11.90
2010,08,11,06,11,11.90
2010,08,11,06,12,11.90
2010,08,11,06,13,11.90
2010,08,11,06,14,11.90
2010,08,11,06,15,11.90
2010,08,11,06,16,11.90
2010,08,11,06,17,11.90
2010,08,11,06,18,11.90
2010,08,11,06,19,11.90
2010,08,11,06,20,11.90
2010,08,11,06,21,11.90
2010,08,11,06,22,11.90
2010,08,11,06,23,11.90
2010,08,11,06,24,11.90
2010,08,11,06,25,11.90
2010,08,11,06,26,11.90
2010,08,11,06,27,11.90
2010,08,11,06,28,11.90
2010,08,11,06,29,11.90
2010,08,11,06,30,11.90
2010,08,11,06,31,11.90
2010,08,11,06,32,11.90
2010,08,11,06,33,11.90
2010,08,11,06,34,11.90
2010,08,11,06,35,11.90
2010,08,11,06,36,11.90
2010,08,11,06,37,11.90
2010,08,11,06,38,11.90
2010,08,11,06,39,11.90
2010,08,11,06,40,11.90
2010,08,11,06,41,11.90
2010,08,11,06,42,11.90
2010,08,11,06,43,11.90
2010,08,11,06,44,11.90
2010,08,11,06,45,11.90
2010,08,11,06,46,11.90
2010,08,11,06,47,11.90
2010,08,11,06,48,11.90
2010,08,11,06,49,11.90
2010,08,11,06,50,11.90
2010,08,11,06,51,11.90
2010,08,11,06,52,11.90
2010,08,11,06,53,11.90
2010,08,11,06,54,11.90
2010,08,11,06,55,11.90
2010,08,11,06,56,11.90
2010,08,11,06,57,11.90
2010,08,11,06,58,11.90
2010,08,11,06,59,11.90
2010,08,11,07,00,11.90
2010,08,11,07,01,11.90
2010,08,11,07,02,11.90
2010,08,11,07,03,11.90
2010,08,11,07,04,11.90
2010,08,11,07,05,11.90
2010,08,11,07,06,11.90
2010,08,11,07,07,11.90
2010,08,11,07,08,11.90
2010,08,11,07,09,11.90
2010,08,11,07,10,11.90
2010,08,11,07,11,11.90
2010,08,11,07,12,12.00
2010,08,11,07,13,12.00
2010,08,11,07,14,12.00
2010,08,11,07,15,12.00
2010,08,11,07,16,12.00
2010,08,11,07,17,12.00
2010,08,11,07,18,12.00
2010,08,11,07,19,12.00
2010,08,11,07,20,12.00
2010,08,11,07,21,12.00
2010,08,11,07,22,12.00
2010,08,11,07,23,12.00
2010,08,11,07,24,12.00
2010,08,11,07,25,12.00
2010,08,11,07,26,12.10
2010,08,11,07,27,12.10
2010,08,11,07,28,12.10
2010,08,11,07,29,12.10
2010,08,11,07,30,12.10
2010,08,11,07,31,12.10
2010,08,11,07,32,12.10
2010,08,11,07,33,12.10
2010,08,11,07,34,12.10
2010,08,11,07,35,12.10
2010,08,11,07,36,12.10
2010,08,11,07,37,12.10
2010,08,11,07,38,12.10
2010,08,11,07,39,12.20
2010,08,11,07,40,12.20
2010,08,11,07,41,12.20
2010,08,11,07,42,12.20
2010,08,11,07,43,12.20
2010,08,11,07,44,12.20
2010,08,11,07,45,12.20
2010,08,11,07,46,12.20
2010,08,11,07,47,12.20
2010,08,11,07,48,12.30
2010,08,11,07,49,12.30
2010,08,11,07,50,12.30
2010,08,11,07,51,12.30
2010,08,11,07,52,12.30
2010,08,11,07,53,12.30
2010,08,11,07,54,12.30
2010,08,11,07,55,12.30
2010,08,11,07,56,12.30
2010,08,11,07,57,12.40
2010,08,11,07,58,12.40
2010,08,11,07,59,12.40
2010,08,11,08,00,12.40
2010,08,11,08,01,12.40
2010,08,11,08,02,12.40
2010,08,11,08,03,12.40
2010,08,11,08,04,12.50
2010,08,11,08,05,12.50
2010,08,11,08,06,12.50
2010,08,11,08,07,12.50
2010,08,11,08,08,12.50
2010,08,11,08,09,12.60
2010,08,11,08,10,12.60
2010,08,11,08,11,12.60
2010,08,11,08,12,12.60
2010,08,11,08,13,12.60
2010,08,11,08,14,12.60
2010,08,11,08,15,12.70
2010,08,11,08,16,12.70
2010,08,11,08,17,12.70
2010,08,11,08,18,12.70
2010,08,11,08,19,12.70
2010,08,11,08,20,12.80
2010,08,11,08,21,12.80
2010,08,11,08,22,12.80
2010,08,11,08,23,12.80
2010,08,11,08,24,12.80
2010,08,11,08,25,12.80
2010,08,11,08,26,12.80
2010,08,11,08,27,12.90
2010,08,11,08,28,12.90
2010,08,11,08,29,12.90
2010,08,11,08,30,12.90
2010,08,11,08,31,12.90
2010,08,11,08,32,13.00
2010,08,11,08,33,13.00
2010,08,11,08,34,13.10
2010,08,11,08,35,13.10
2010,08,11,08,36,13.10
2010,08,11,08,37,13.10
2010,08,11,08,38,13.10
2010,08,11,08,39,13.20
2010,08,11,08,40,13.20
2010,08,11,08,41,13.20
2010,08,11,08,42,13.20
2010,08,11,08,43,13.20
2010,08,11,08,44,13.20
2010,08,11,08,45,13.30
2010,08,11,08,46,13.30
2010,08,11,08,47,13.30
2010,08,11,08,48,13.30
2010,08,11,08,49,13.40
2010,08,11,08,50,13.40
2010,08,11,08,51,13.40
2010,08,11,08,52,13.50
2010,08,11,08,53,13.50
2010,08,11,08,54,13.50
2010,08,11,08,55,13.60
2010,08,11,08,56,13.60
2010,08,11,08,57,13.60
2010,08,11,08,58,13.70
2010,08,11,08,59,13.70
2010,08,11,09,00,13.70
2010,08,11,09,01,13.80
2010,08,11,09,02,13.80
2010,08,11,09,03,13.80
2010,08,11,09,04,13.80
2010,08,11,09,05,13.90
2010,08,11,09,06,13.90
2010,08,11,09,07,14.00
2010,08,11,09,08,14.00
2010,08,11,09,09,14.10
2010,08,11,09,10,14.10
2010,08,11,09,11,14.10
2010,08,11,09,12,14.20
2010,08,11,09,13,14.20
2010,08,11,09,14,14.30
2010,08,11,09,15,14.30
2010,08,11,09,16,14.30
2010,08,11,09,17,14.30
2010,08,11,09,18,14.40
2010,08,11,09,19,14.40
2010,08,11,09,20,14.40
2010,08,11,09,21,14.50
2010,08,11,09,22,14.60
2010,08,11,09,23,14.70
2010,08,11,09,24,14.70
2010,08,11,09,25,14.80
2010,08,11,09,26,14.80
2010,08,11,09,27,14.90
2010,08,11,09,28,15.00
2010,08,11,09,29,15.00
2010,08,11,09,30,15.00
2010,08,11,09,31,15.00
2010,08,11,09,32,15.00
2010,08,11,09,33,15.10
2010,08,11,09,34,15.20
2010,08,11,09,35,15.20
2010,08,11,09,36,15.30
2010,08,11,09,37,15.30
2010,08,11,09,38,15.40
2010,08,11,09,39,15.40
2010,08,11,09,40,15.50
2010,08,11,09,41,15.60
2010,08,11,09,42,15.60
2010,08,11,09,43,15.60
2010,08,11,09,44,15.70
2010,08,11,09,45,15.70
2010,08,11,09,46,15.80
2010,08,11,09,47,15.80
2010,08,11,09,48,15.90
2010,08,11,09,49,15.90
2010,08,11,09,50,16.00
2010,08,11,09,51,16.10
2010,08,11,09,52,16.10
2010,08,11,09,53,16.20
2010,08,11,09,54,16.20
2010,08,11,09,55,16.30
2010,08,11,09,56,16.30
2010,08,11,09,57,16.30
2010,08,11,09,58,16.40
2010,08,11,09,59,16.40
2010,08,11,10,00,16.50
2010,08,11,10,01,16.50
2010,08,11,10,02,16.60
2010,08,11,10,03,16.60
2010,08,11,10,04,16.60
2010,08,11,10,05,16.70
2010,08,11,10,06,16.80
2010,08,11,10,07,16.80
2010,08,11,10,08,16.90
2010,08,11,10,09,16.90
2010,08,11,10,10,17.00
2010,08,11,10,11,17.00
2010,08,11,10,12,17.10
2010,08,11,10,13,17.10
2010,08,11,10,14,17.10
2010,08,11,10,15,17.20
2010,08,11,10,16,17.20
2010,08,11,10,17,17.20
2010,08,11,10,18,17.20
2010,08,11,10,19,17.30
2010,08,11,10,20,17.30
2010,08,11,10,21,17.30
2010,08,11,10,22,17.30
2010,08,11,10,23,17.40
2010,08,11,10,24,17.40
2010,08,11,10,25,17.40
2010,08,11,10,26,17.40
2010,08,11,10,27,17.50
2010,08,11,10,28,17.50
2010,08,11,10,29,17.60
2010,08,11,10,30,17.60
2010,08,11,10,31,17.70
2010,08,11,10,32,17.70
2010,08,11,10,33,17.80
2010,08,11,10,34,17.80
2010,08,11,10,35,17.80
2010,08,11,10,36,17.80
2010,08,11,10,37,17.90
2010,08,11,10,38,17.90
2010,08,11,10,39,17.90
2010,08,11,10,40,17.90
2010,08,11,10,41,18.00
2010,08,11,10,42,18.00
2010,08,11,10,43,18.10
2010,08,11,10,44,18.10
2010,08,11,10,45,18.10
2010,08,11,10,46,18.20
2010,08,11,10,47,18.20
2010,08,11,10,48,18.30
2010,08,11,10,49,18.30
2010,08,11,10,50,18.40
2010,08,11,10,51,18.50
2010,08,11,10,52,18.60
2010,08,11,10,53,18.70
2010,08,11,10,54,18.80
2010,08,11,10,55,18.90
2010,08,11,10,56,18.90
2010,08,11,10,57,19.00
2010,08,11,10,58,19.10
2010,08,11,10,59,19.20
2010,08,11,11,00,19.20
2010,08,11,11,01,19.30
2010,08,11,11,02,19.30
2010,08,11,11,03,19.40
2010,08,11,11,04,19.40
2010,08,11,11,05,19.40
2010,08,11,11,06,19.50
2010,08,11,11,07,19.50
2010,08,11,11,08,19.50
2010,08,11,11,09,19.60
2010,08,11,11,10,19.60
2010,08,11,11,11,19.70
2010,08,11,11,12,19.70
2010,08,11,11,13,19.80
2010,08,11,11,14,19.90
2010,08,11,11,15,19.90
2010,08,11,11,16,20.00
2010,08,11,11,17,20.10
2010,08,11,11,18,20.20
2010,08,11,11,19,20.20
2010,08,11,11,20,20.30
2010,08,11,11,21,20.40
2010,08,11,11,22,20.50
2010,08,11,11,23,20.50
2010,08,11,11,24,20.60
2010,08,11,11,25,20.60
2010,08,11,11,26,20.70
2010,08,11,11,27,20.80
2010,08,11,11,28,20.80
2010,08,11,11,29,20.90
2010,08,11,11,30,20.90
2010,08,11,11,31,21.00
2010,08,11,11,32,21.10
2010,08,11,11,33,21.10
2010,08,11,11,34,21.20
2010,08,11,11,35,21.20
2010,08,11,11,36,21.20
2010,08,11,11,37,21.20
2010,08,11,11,38,21.30
2010,08,11,11,39,21.30
2010,08,11,11,40,21.30
2010,08,11,11,41,21.30
2010,08,11,11,42,21.40
2010,08,11,11,43,21.40
2010,08,11,11,44,21.50
2010,08,11,11,45,21.50
2010,08,11,11,46,21.60
2010,08,11,11,47,21.60
2010,08,11,11,48,21.70
2010,08,11,11,49,21.70
2010,08,11,11,50,21.80
2010,08,11,11,51,21.80
2010,08,11,11,52,21.80
2010,08,11,11,53,21.90
2010,08,11,11,54,22.00
2010,08,11,11,55,22.10
2010,08,11,11,56,22.10
2010,08,11,11,57,22.20
2010,08,11,11,58,22.20
2010,08,11,11,59,22.20
2010,08,11,12,00,22.20
2010,08,11,12,01,22.20
2010,08,11,12,02,22.20
2010,08,11,12,03,22.30
2010,08,11,12,04,22.30
2010,08,11,12,05,22.30
2010,08,11,12,06,22.40
2010,08,11,12,07,22.40
2010,08,11,12,08,22.50
2010,08,11,12,09,22.50
2010,08,11,12,10,22.60
2010,08,11,12,11,22.60
2010,08,11,12,12,22.60
2010,08,11,12,13,22.70
2010,08,11,12,14,22.80
2010,08,11,12,15,22.80
2010,08,11,12,16,22.80
2010,08,11,12,17,22.90
2010,08,11,12,18,22.90
2010,08,11,12,19,23.00
2010,08,11,12,20,23.10
2010,08,11,12,21,23.10
2010,08,11,12,22,23.20
2010,08,11,12,23,23.30
2010,08,11,12,24,23.40
2010,08,11,12,25,23.40
2010,08,11,12,26,23.50
2010,08,11,12,27,23.60
2010,08,11,12,28,23.60
2010,08,11,12,29,23.70
2010,08,11,12,30,23.70
2010,08,11,12,31,23.70
2010,08,11,12,32,23.80
2010,08,11,12,33,23.80
2010,08,11,12,34,23.80
2010,08,11,12,35,23.80
2010,08,11,12,36,23.80
2010,08,11,12,37,23.80
2010,08,11,12,38,23.70
2010,08,11,12,39,23.60
2010,08,11,12,40,23.60
2010,08,11,12,41,23.50
2010,08,11,12,42,23.50
2010,08,11,12,43,23.50
2010,08,11,12,44,23.50
2010,08,11,12,45,23.50
2010,08,11,12,46,23.50
2010,08,11,12,47,23.50
2010,08,11,12,48,23.50
2010,08,11,12,49,23.50
2010,08,11,12,50,23.40
2010,08,11,12,51,23.40
2010,08,11,12,52,23.40
2010,08,11,12,53,23.30
2010,08,11,12,54,23.30
2010,08,11,12,55,23.30
2010,08,11,12,56,23.20
2010,08,11,12,57,23.20
2010,08,11,12,58,23.20
2010,08,11,12,59,23.20
2010,08,11,13,00,23.20
2010,08,11,13,01,23.20
2010,08,11,13,02,23.20
2010,08,11,13,03,23.20
2010,08,11,13,04,23.20
2010,08,11,13,05,23.20
2010,08,11,13,06,23.20
2010,08,11,13,07,23.20
2010,08,11,13,08,23.20
2010,08,11,13,09,23.20
2010,08,11,13,10,23.20
2010,08,11,13,11,23.20
2010,08,11,13,12,23.20
2010,08,11,13,13,23.20
2010,08,11,13,14,23.20
2010,08,11,13,15,23.20
2010,08,11,13,16,23.20
2010,08,11,13,17,23.20
2010,08,11,13,18,23.20
2010,08,11,13,19,23.20
2010,08,11,13,20,23.20
2010,08,11,13,21,23.20
2010,08,11,13,22,23.20
2010,08,11,13,23,23.20
2010,08,11,13,24,23.20
2010,08,11,13,25,23.20
2010,08,11,13,26,23.20
2010,08,11,13,27,23.20
2010,08,11,13,28,23.20
2010,08,11,13,29,23.20
2010,08,11,13,30,23.20
2010,08,11,13,31,23.20
2010,08,11,13,32,23.20
2010,08,11,13,33,23.30
2010,08,11,13,34,23.30
2010,08,11,13,35,23.40
2010,08,11,13,36,23.50
2010,08,11,13,37,23.60
2010,08,11,13,38,23.60
2010,08,11,13,39,23.70
2010,08,11,13,40,23.70
2010,08,11,13,41,23.70
2010,08,11,13,42,23.70
2010,08,11,13,43,23.80
2010,08,11,13,44,23.90
2010,08,11,13,45,24.00
2010,08,11,13,46,24.00
2010,08,11,13,47,24.10
2010,08,11,13,48,24.10
2010,08,11,13,49,24.10
2010,08,11,13,50,24.10
2010,08,11,13,51,24.20
2010,08,11,13,52,24.20
2010,08,11,13,53,24.30
2010,08,11,13,54,24.30
2010,08,11,13,55,24.30
2010,08,11,13,56,24.40
2010,08,11,13,57,24.40
2010,08,11,13,58,24.40
2010,08,11,13,59,24.40
2010,08,11,14,00,24.30
2010,08,11,14,01,24.40
2010,08,11,14,02,24.40
2010,08,11,14,03,24.40
2010,08,11,14,04,24.50
2010,08,11,14,05,24.50
2010,08,11,14,06,24.60
2010,08,11,14,07,24.60
2010,08,11,14,08,24.70
2010,08,11,14,09,24.70
2010,08,11,14,10,24.70
2010,08,11,14,11,24.70
2010,08,11,14,12,24.70
2010,08,11,14,13,24.60
2010,08,11,14,14,24.60
2010,08,11,14,15,24.60
2010,08,11,14,16,24.50
2010,08,11,14,17,24.50
2010,08,11,14,18,24.40
2010,08,11,14,19,24.50
2010,08,11,14,20,24.50
2010,08,11,14,21,24.60
2010,08,11,14,22,24.70
2010,08,11,14,23,24.80
2010,08,11,14,24,24.80
2010,08,11,14,25,24.90
2010,08,11,14,26,25.00
2010,08,11,14,27,25.10
2010,08,11,14,28,25.10
2010,08,11,14,29,25.20
2010,08,11,14,30,25.20
2010,08,11,14,31,25.30
2010,08,11,14,32,25.40
2010,08,11,14,33,25.50
2010,08,11,14,34,25.50
2010,08,11,14,35,25.50
2010,08,11,14,36,25.50
2010,08,11,14,37,25.40
2010,08,11,14,38,25.40
2010,08,11,14,39,25.30
2010,08,11,14,40,25.30
2010,08,11,14,41,25.20
2010,08,11,14,42,25.10
2010,08,11,14,43,25.10
2010,08,11,14,44,25.10
2010,08,11,14,45,25.20
2010,08,11,14,46,25.20
2010,08,11,14,47,25.20
2010,08,11,14,48,25.20
2010,08,11,14,49,25.30
2010,08,11,14,50,25.30
2010,08,11,14,51,25.40
2010,08,11,14,52,25.40
2010,08,11,14,53,25.40
2010,08,11,14,54,25.50
2010,08,11,14,55,25.50
2010,08,11,14,56,25.60
2010,08,11,14,57,25.60
2010,08,11,14,58,25.60
2010,08,11,14,59,25.70
2010,08,11,15,00,25.80
2010,08,11,15,01,25.80
2010,08,11,15,02,25.90
2010,08,11,15,03,25.90
2010,08,11,15,04,25.90
2010,08,11,15,05,26.00
2010,08,11,15,06,26.10
2010,08,11,15,07,26.20
2010,08,11,15,08,26.10
2010,08,11,15,09,26.10
2010,08,11,15,10,26.10
2010,08,11,15,11,26.10
2010,08,11,15,12,26.10
2010,08,11,15,13,26.10
2010,08,11,15,14,26.10
2010,08,11,15,15,26.20
2010,08,11,15,16,26.20
2010,08,11,15,17,26.20
2010,08,11,15,18,26.20
2010,08,11,15,19,26.10
2010,08,11,15,20,26.10
2010,08,11,15,21,26.10
2010,08,11,15,22,26.20
2010,08,11,15,23,26.20
2010,08,11,15,24,26.20
2010,08,11,15,25,26.20
2010,08,11,15,26,26.20
2010,08,11,15,27,26.20
2010,08,11,15,28,26.20
2010,08,11,15,29,26.20
2010,08,11,15,30,26.20
2010,08,11,15,31,26.20
2010,08,11,15,32,26.20
2010,08,11,15,33,26.20
2010,08,11,15,34,26.20
2010,08,11,15,35,26.20
2010,08,11,15,36,26.20
2010,08,11,15,37,26.20
2010,08,11,15,38,26.30
2010,08,11,15,39,26.30
2010,08,11,15,40,26.30
2010,08,11,15,41,26.40
2010,08,11,15,42,26.40
2010,08,11,15,43,26.40
2010,08,11,15,44,26.50
2010,08,11,15,45,26.50
2010,08,11,15,46,26.60
2010,08,11,15,47,26.60
2010,08,11,15,48,26.70
2010,08,11,15,49,26.70
2010,08,11,15,50,26.80
2010,08,11,15,51,26.80
2010,08,11,15,52,26.90
2010,08,11,15,53,26.90
2010,08,11,15,54,26.90
2010,08,11,15,55,26.90
2010,08,11,15,56,26.90
2010,08,11,15,57,26.90
2010,08,11,15,58,26.90
2010,08,11,15,59,26.90
2010,08,11,16,00,27.00
2010,08,11,16,01,27.00
2010,08,11,16,02,27.00
2010,08,11,16,03,26.90
2010,08,11,16,04,26.90
2010,08,11,16,05,26.90
2010,08,11,16,06,26.80
2010,08,11,16,07,26.60
2010,08,11,16,08,26.50
2010,08,11,16,09,26.40
2010,08,11,16,10,26.30
2010,08,11,16,11,26.20
2010,08,11,16,12,26.00
2010,08,11,16,13,25.90
2010,08,11,16,14,25.80
2010,08,11,16,15,25.70
2010,08,11,16,16,25.60
2010,08,11,16,17,25.60
2010,08,11,16,18,25.40
2010,08,11,16,19,25.30
2010,08,11,16,20,25.20
2010,08,11,16,21,25.20
2010,08,11,16,22,25.20
2010,08,11,16,23,25.10
2010,08,11,16,24,25.10
2010,08,11,16,25,25.10
2010,08,11,16,26,25.10
2010,08,11,16,27,25.10
2010,08,11,16,28,25.00
2010,08,11,16,29,25.00
2010,08,11,16,30,24.90
2010,08,11,16,31,24.90
2010,08,11,16,32,24.80
2010,08,11,16,33,24.80
2010,08,11,16,34,24.80
2010,08,11,16,35,24.80
2010,08,11,16,36,24.90
2010,08,11,16,37,24.90
2010,08,11,16,38,25.00
2010,08,11,16,39,25.10
2010,08,11,16,40,25.10
2010,08,11,16,41,25.20
2010,08,11,16,42,25.30
2010,08,11,16,43,25.50
2010,08,11,16,44,25.60
2010,08,11,16,45,25.70
2010,08,11,16,46,25.70
2010,08,11,16,47,25.80
2010,08,11,16,48,25.90
2010,08,11,16,49,25.90
2010,08,11,16,50,25.90
2010,08,11,16,51,25.90
2010,08,11,16,52,25.90
2010,08,11,16,53,25.90
2010,08,11,16,54,25.90
2010,08,11,16,55,25.90
2010,08,11,16,56,26.00
2010,08,11,16,57,26.10
2010,08,11,16,58,26.10
2010,08,11,16,59,26.20
2010,08,11,17,00,26.20
2010,08,11,17,01,26.20
2010,08,11,17,02,26.30
2010,08,11,17,03,26.30
2010,08,11,17,04,26.30
2010,08,11,17,05,26.30
2010,08,11,17,06,26.30
2010,08,11,17,07,26.30
2010,08,11,17,08,26.40
2010,08,11,17,09,26.40
2010,08,11,17,10,26.40
2010,08,11,17,11,26.40
2010,08,11,17,12,26.50
2010,08,11,17,13,26.50
2010,08,11,17,14,26.60
2010,08,11,17,15,26.60
2010,08,11,17,16,26.70
2010,08,11,17,17,26.70
2010,08,11,17,18,26.70
2010,08,11,17,19,26.70
2010,08,11,17,20,26.70
2010,08,11,17,21,26.70
2010,08,11,17,22,26.70